{"data":{"norad_id":48357,"epoch":"2026-05-25T00:11:39.835680Z","epoch_age_seconds":70997,"freshness":"FRESH","line1":"1 48357U 21038E   26145.00809995  .00006647  00000+0  22573-3 0  9993","line2":"2 48357  53.1613   3.2061 0001135  91.9409 268.1722 15.31706660278776","mean_motion":15.3170666,"eccentricity":0.0001135,"inclination_deg":53.1613,"raan_deg":3.2061,"arg_perigee_deg":91.9409,"mean_anomaly_deg":268.1722,"bstar":0.00022573,"rev_number":27877,"period_min":94.012779183189,"perigee_km":469.9427968985,"apogee_km":471.49748746978,"semimajor_km":6848.8571421841,"source":"CELESTRAK","updated_at":"2026-05-25T13:38:16.685044Z"}}